Regional Weather Roundup
Issued by NWS Sioux Falls, SD

Home | Current Version | Previous Version | Text Only | Print | Product List | Glossary On
Versions: 1 2 3 4 5 6 7 8 9 10 11 12 13 14 15 16 17 18 19 20 21 22 23 24 25 26 27 28 29 30 31 32 33 34 35 36 37 38 39 40 41 42 43 44 45 46 47 48 49 50
000
ASUS43 KFSD 241502
RWRFSD

WEATHER ROUNDUP FOR SE SOUTH DAKOTA/SW MINNESOTA/NW IOWA
NATIONAL WEATHER SERVICE SIOUX FALLS SD
900 AM CST TUE JAN 24 2017

NOTE: "FAIR" INDICATES FEW OR NO CLOUDS BELOW 12,000 FEET WITH NO
SIGNIFICANT WEATHER AND OR OBSTRUCTIONS TO VISIBILITY.


SDZ038>040-050-052>070-241600-
SOUTHEAST SOUTH DAKOTA

CITY           SKY/WX    TMP DP  RH WIND       PRES   REMARKS
BROOKINGS      CLOUDY    29  27  92 E9        29.79F FOG     WCI  20
CHAMBERLAIN    LGT SNOW  32  32 100 NE9       29.73S WCI  24
HURON          CLOUDY    31  29  92 E13       29.80S WCI  21
MADISON        CLOUDY    28  28 100 E16         N/A  WCI  17
MITCHELL       CLOUDY    32  30  92 E12       29.77F WCI  23
SIOUX FALLS    CLOUDY    31  29  92 E16       29.77F WCI  20
WINNER         LGT SNOW  30  28  92 E10       29.69S VSB 1   WCI  21
YANKTON        CLOUDY    30  27  86 E14       29.74R WCI  20
$$

MNZ071-072-080-081-089-090-097-098-241600-
SOUTHWEST MINNESOTA

CITY           SKY/WX    TMP DP  RH WIND       PRES   REMARKS
FAIRMONT       CLOUDY    30  27  88 E7        29.86F WCI  23
JACKSON        CLOUDY    30  28  93 E9        29.83F WCI  22
LUVERNE        CLOUDY    30  27  86 E14       29.79F WCI  20
MARSHALL       CLOUDY    30  27  88 E8        29.85F WCI  22
MONTEVIDEO     CLOUDY    30  28  93 E3          N/A
PIPESTONE      CLOUDY    30  30 100 E14       29.78F FOG     WCI  20
REDWOOD FALLS  CLOUDY    31  25  78 E8        29.87S WCI  23
TRACY          CLOUDY    31  28  91 E8        29.85F WCI  23
WINDOM         CLOUDY    30  28  93 E8        29.84S WCI  23
WORTHINGTON    CLOUDY    30  28  92 E15       29.80F WCI  19
$$

IAZ001>003-012>014-020>022-031-032-NEZ013-014-SDZ071-241600-
NORTHWEST IOWA

CITY           SKY/WX    TMP DP  RH WIND       PRES   REMARKS
CHEROKEE       CLOUDY    31  30  96 E14G20    29.79F WCI  21
DENISON        CLOUDY    30  30 100 E16G22    29.76R FOG     WCI  19
ESTHERVILLE    CLOUDY    30  29  96 E9        29.83F WCI  22
LE MARS        CLOUDY    32  30  93 E13G21    29.76F WCI  22
ORANGE CITY    CLOUDY    30  28  93 E15G21    29.76F WCI  19
SHELDON        CLOUDY    30  30 100 E15       29.77F WCI  19
SIOUX CITY     CLOUDY    33  29  85 E17       29.76S WCI  22
SPENCER        CLOUDY    31  29  92 E14       29.82S WCI  21
STORM LAKE     CLOUDY    30  28  93 E18       29.78F FOG     WCI  18
$$

ABBREVIATIONS USED IN REMARKS
   TC - TEMPERATURE IN CELSIUS
  WCI - WIND CHILL INDEX
   HX - HEAT INDEX
  VSB - VISIBILITY





USA.gov is the U.S. government's official web portal to all federal, state and local government web resources and services.